El Dorado, AR

9:30 PM CDT on June 28, 2017 (GMT -0500)
South Arkansas Regional At Goodwin

Weather History for KELD - February, 2013

Change the Weather History Date:

Saturday, February 2, 2013

  Actual Average Record
Temperature  
Mean Temperature 48 °F 45 °F  
Max Temperature 64 °F 56 °F 80 °F (1997)
Min Temperature 31 °F 34 °F -9 °F (1951)
Degree Days  
Heating Degree Days 17 20  
Month to date heating degree days 42 40  
Since 1 July heating degree days 1597 1783  
Cooling Degree Days 0 0  
Month to date cooling degree days 0 0  
Year to date cooling degree days 6 2  
Moisture  
Dew Point 35 °F    
Average Humidity 66    
Maximum Humidity 89    
Minimum Humidity 43    
Precipitation  
Precipitation T in 0.16 in 3.44 in (1939)
Month to date precipitation T 0.33  
Year to date precipitation 3.66 4.63  
Snow  
Snow 0.00 in - - ()
Month to date snowfall 0.0  
Since 1 July snowfall 0.1  
Snow Depth 0.00 in    
Sea Level Pressure  
Sea Level Pressure 30.23 in    
Wind  
Wind Speed 4 mph (WNW)    
Max Wind Speed 20 mph    
Max Gust Speed 28 mph    
Visibility 10 miles    
Events      
T = Trace of Precipitation, MM = Missing Value Source: NWS Daily Summary

Daily Weather History Graph

Daily Weather History Graph

Search for Another Location

Airport or City:

Trip Planner

Search our weather history database for the weather conditions in past years. The results will help you decide how hot, cold, wet, or windy it might be!

Date:

Astronomy

Feb. 02, 2013 Rise Set
Actual Time 7:05 AM CST 5:44 PM CST
Civil Twilight 6:40 AM CST 6:10 PM CST
Nautical Twilight 6:10 AM CST 6:39 PM CST
Astronomical Twilight 5:41 AM CST 7:09 PM CST
Moon No Moon Rise 10:40 AM CST (2/2)
Length of Visible Light 11h 30m
Length of Day
10h 38m
Waning Gibbous, 59% of the Moon is Illuminated
Feb 2
Waning Gibbous
Feb 3
Last Quarter
Feb 10
New
Feb 17
First Quarter
Feb 25
Full

Hourly Weather History & Observations

Time (CST) Temp. Windchill Dew Point Humidity Pressure Visibility Wind Dir Wind Speed Gust Speed Precip Events Conditions
12:53 AM 33.1 °F 28.7 °F 24.1 °F 70% 30.28 in 10.0 mi SSE 4.6 mph - N/A   Clear
1:53 AM 33.1 °F 26.9 °F 25.0 °F 72% 30.25 in 10.0 mi Variable 6.9 mph - N/A   Clear
2:53 AM 32.0 °F 27.5 °F 25.0 °F 75% 30.23 in 10.0 mi South 4.6 mph - N/A   Clear
3:53 AM 32.0 °F 28.7 °F 25.0 °F 75% 30.22 in 10.0 mi SSE 3.5 mph - N/A   Clear
4:53 AM 32.0 °F - 26.1 °F 79% 30.21 in 10.0 mi Calm Calm - N/A   Clear
5:53 AM 30.2 °F - 26.6 °F 86% 30.23 in 10.0 mi Calm Calm - N/A   Partly Cloudy
6:53 AM 33.1 °F - 28.0 °F 82% 30.24 in 10.0 mi Calm Calm - N/A   Overcast
7:53 AM 34.0 °F - 28.9 °F 82% 30.24 in 10.0 mi Calm Calm - N/A   Mostly Cloudy
8:53 AM 37.9 °F - 30.9 °F 76% 30.24 in 10.0 mi Calm Calm - N/A   Overcast
9:53 AM 43.0 °F 41.3 °F 33.1 °F 68% 30.26 in 10.0 mi North 3.5 mph - 0.00 in   Mostly Cloudy
10:53 AM 48.9 °F - 36.0 °F 61% 30.26 in 10.0 mi NNW 4.6 mph - N/A   Mostly Cloudy
11:53 AM 55.0 °F - 39.0 °F 55% 30.24 in 10.0 mi Variable 6.9 mph - N/A   Clear
12:53 PM 61.0 °F - 45.0 °F 56% 30.22 in 10.0 mi West 18.4 mph 27.6 mph N/A   Mostly Cloudy
1:53 PM 62.1 °F - 44.1 °F 52% 30.19 in 10.0 mi WNW 11.5 mph 19.6 mph N/A   Partly Cloudy
2:53 PM 63.0 °F - 42.1 °F 46% 30.19 in 10.0 mi WNW 8.1 mph - N/A   Clear
3:53 PM 64.0 °F - 41.0 °F 43% 30.19 in 10.0 mi NW 11.5 mph - N/A   Clear
4:53 PM 62.1 °F - 39.9 °F 44% 30.19 in 10.0 mi WNW 3.5 mph - N/A   Clear
5:53 PM 53.1 °F - 42.1 °F 66% 30.20 in 10.0 mi NW 3.5 mph - N/A   Clear
6:53 PM 48.9 °F - 41.0 °F 74% 30.22 in 10.0 mi Calm Calm - N/A   Clear
7:53 PM 46.0 °F - 39.9 °F 79% 30.23 in 10.0 mi Calm Calm - N/A   Clear
8:53 PM 42.1 °F - 39.0 °F 89% 30.25 in 10.0 mi Calm Calm - N/A   Clear
9:53 PM 41.0 °F 38.0 °F 37.9 °F 89% 30.26 in 10.0 mi NW 4.6 mph - N/A   Clear
10:53 PM 39.0 °F - 36.0 °F 89% 30.27 in 10.0 mi Calm Calm - N/A   Clear
11:53 PM 37.0 °F - 35.1 °F 93% 30.28 in 10.0 mi Calm Calm - N/A   Clear